NORTHEAST SUFFOLK  -  Wind Advisory Wind Advisory     Wind Advisory Wind Advisory     Rip Current Statement Rip Current Statement     Rip Current Statement Rip Current Statement        NORTHERN NASSAU  -  Wind Advisory Wind Advisory     Wind Advisory Wind Advisory     Coastal Flood Statement Coastal Flood Statement     Rip Current Statement Rip Current Statement     Rip Current Statement Rip Current Statement        NORTHERN QUEENS  -  Wind Advisory Wind Advisory     Coastal Flood Statement Coastal Flood Statement     Rip Current Statement Rip Current Statement     Rip Current Statement Rip Current Statement        NORTHWEST SUFFOLK  -  Wind Advisory Wind Advisory     Wind Advisory Wind Advisory     Rip Current Statement Rip Current Statement     Rip Current Statement Rip Current Statement        SOUTHEAST SUFFOLK  -  Wind Advisory Wind Advisory     Wind Advisory Wind Advisory     Rip Current Statement Rip Current Statement     Rip Current Statement Rip Current Statement        SOUTHERN NASSAU  -  Wind Advisory Wind Advisory     Wind Advisory Wind Advisory     Coastal Flood Statement Coastal Flood Statement     Rip Current Statement Rip Current Statement     Rip Current Statement Rip Current Statement        SOUTHERN QUEENS  -  Wind Advisory Wind Advisory     Coastal Flood Statement Coastal Flood Statement     Rip Current Statement Rip Current Statement     Rip Current Statement Rip Current Statement        SOUTHWEST SUFFOLK  -  Wind Advisory Wind Advisory     Wind Advisory Wind Advisory     Rip Current Statement Rip Current Statement     Rip Current Statement Rip Current Statement      

Active alerts

Northern Queens
  Details for Northern Queens Wind Advisory  +3 additional alerts
Southern Queens
  Details for Southern Queens Wind Advisory  +3 additional alerts
Northern Nassau
  Details for Northern Nassau Wind Advisory  +4 additional alerts
Southern Nassau
  Details for Southern Nassau Wind Advisory  +4 additional alerts
Northwest Suffolk
  Details for Northwest Suffolk Wind Advisory  +3 additional alerts
Southwest Suffolk
  Details for Southwest Suffolk Wind Advisory  +3 additional alerts
Northeast Suffolk
  Details for Northeast Suffolk Wind Advisory  +3 additional alerts
Southeast Suffolk
  Details for Southeast Suffolk Wind Advisory  +3 additional alerts


WXM80 ListenWXM80 Stop

You find our weather info also at:

UK Metoffice

WeatherCloud

Weather Underground

Northeastern Weather Network

AWEKAS

Citizen Weather Observer Program (CWOP)

HAMweather, WeatherForYou, PWS Weather


Weather Underground History page Text

Daily Summary for June 18, 2016 Units:  English    Metric   Both
« Previous Day
Next Day »
Daily Weekly Monthly Yearly Custom
  High: Low: Average:
Temperature: 88.6 °F 54.3 °F 71 °F
Dew Point: 61.3 °F 48.4 °F 54.7 °F
Humidity: 95 % 26 % 60 %
Wind Speed: 7.3 mph 0.0 mph 1.1 mph
Wind Gust: 11.5 mph - -
Wind:- - SSE
Pressure: 30.28 in 30.09 in -
Precipitation: 0.00 in    
Historical Graphs
 
 
Tabular Data for June 18, 2016
Time Temperature Dew Point Pressure Wind Wind Speed Wind Gust Humidity Rainfall Rate (Hourly)
00:03 62.5 °F 52.6 °F 30.09 in SW 1.2 mph 3.5 mph 70 % 0.00 in
00:08 62.3 °F 52.4 °F 30.09 in Calm   2.3 mph 70 % 0.00 in
00:18 61.9 °F 52.8 °F 30.09 in Calm     72 % 0.00 in
00:23 61.6 °F 52.5 °F 30.09 in Calm     72 % 0.00 in
00:28 61.4 °F 52.7 °F 30.09 in Calm     73 % 0.00 in
00:33 61.2 °F 52.5 °F 30.10 in Calm     73 % 0.00 in
00:38 60.9 °F 52.6 °F 30.10 in Calm     74 % 0.00 in
00:44 60.7 °F 52.4 °F 30.10 in Calm     74 % 0.00 in
00:49 60.5 °F 52.5 °F 30.09 in SSW 0.5 mph 1.2 mph 75 % 0.00 in
00:54 60.2 °F 52.2 °F 30.09 in Calm     75 % 0.00 in
00:59 60.1 °F 52.1 °F 30.09 in Calm     75 % 0.00 in
01:09 59.5 °F 52.3 °F 30.09 in Calm     77 % 0.00 in
01:14 59.2 °F 52.7 °F 30.09 in Calm     79 % 0.00 in
01:19 58.9 °F 52.4 °F 30.09 in Calm     79 % 0.00 in
01:24 58.7 °F 52.2 °F 30.10 in Calm     79 % 0.00 in
01:29 58.6 °F 52.1 °F 30.10 in Calm     79 % 0.00 in
01:40 58.3 °F 52.2 °F 30.10 in Calm     80 % 0.00 in
01:45 58.1 °F 52.3 °F 30.10 in Calm     81 % 0.00 in
01:50 57.9 °F 51.8 °F 30.10 in Calm     80 % 0.00 in
01:55 57.8 °F 52.0 °F 30.09 in Calm     81 % 0.00 in
02:00 57.7 °F 52.2 °F 30.10 in Calm     82 % 0.00 in
02:05 57.5 °F 52.0 °F 30.10 in Calm     82 % 0.00 in
02:10 57.4 °F 51.9 °F 30.10 in Calm     82 % 0.00 in
02:15 57.2 °F 51.8 °F 30.10 in Calm     82 % 0.00 in
02:20 57.1 °F 51.7 °F 30.10 in Calm     82 % 0.00 in
02:26 56.9 °F 51.8 °F 30.09 in Calm     83 % 0.00 in
02:31 56.8 °F 52.0 °F 30.09 in WSW 2.8 mph 4.0 mph 84 % 0.00 in
02:36 56.7 °F 51.9 °F 30.09 in WSW 2.0 mph 3.5 mph 84 % 0.00 in
02:41 56.6 °F 52.1 °F 30.09 in WSW 1.3 mph 3.5 mph 85 % 0.00 in
02:46 56.6 °F 52.1 °F 30.09 in Calm     85 % 0.00 in
02:51 56.7 °F 52.2 °F 30.09 in Calm     85 % 0.00 in
02:56 56.7 °F 51.9 °F 30.10 in SW 0.8 mph 2.0 mph 84 % 0.00 in
03:01 56.8 °F 52.0 °F 30.10 in Calm   1.2 mph 84 % 0.00 in
03:06 56.9 °F 52.1 °F 30.10 in Calm     84 % 0.00 in
03:11 56.9 °F 52.1 °F 30.10 in Calm     84 % 0.00 in
03:22 56.9 °F 52.1 °F 30.09 in Calm     84 % 0.00 in
03:27 56.9 °F 52.1 °F 30.09 in Calm     84 % 0.00 in
03:32 56.9 °F 52.1 °F 30.09 in Calm     84 % 0.00 in
03:37 56.8 °F 52.0 °F 30.09 in Calm     84 % 0.00 in
03:42 56.7 °F 51.9 °F 30.09 in Calm     84 % 0.00 in
03:47 56.6 °F 51.8 °F 30.10 in Calm   1.0 mph 84 % 0.00 in
03:52 56.5 °F 52.0 °F 30.10 in Calm     85 % 0.00 in
03:57 56.4 °F 51.9 °F 30.10 in Calm     85 % 0.00 in
04:02 56.3 °F 51.8 °F 30.10 in SW 0.2 mph 1.2 mph 85 % 0.00 in
04:08 56.2 °F 52.1 °F 30.10 in Calm     86 % 0.00 in
04:13 56.1 °F 52.0 °F 30.10 in Calm   1.2 mph 86 % 0.00 in
04:18 56.0 °F 51.9 °F 30.10 in Calm     86 % 0.00 in
04:23 55.8 °F 51.7 °F 30.11 in Calm     86 % 0.00 in
04:28 55.7 °F 51.6 °F 30.11 in Calm     86 % 0.00 in
04:33 55.6 °F 51.5 °F 30.11 in Calm     86 % 0.00 in
04:38 55.4 °F 51.6 °F 30.12 in Calm   1.2 mph 87 % 0.00 in
04:43 55.4 °F 51.6 °F 30.11 in Calm     87 % 0.00 in
04:48 55.3 °F 51.5 °F 30.12 in Calm     87 % 0.00 in
04:53 55.2 °F 51.7 °F 30.12 in Calm     88 % 0.00 in
04:59 55.1 °F 51.6 °F 30.11 in Calm     88 % 0.00 in
05:04 54.9 °F 51.4 °F 30.12 in Calm     88 % 0.00 in
05:09 54.8 °F 51.3 °F 30.12 in Calm     88 % 0.00 in
05:14 54.8 °F 51.6 °F 30.13 in Calm     89 % 0.00 in
05:19 54.7 °F 51.5 °F 30.13 in Calm     89 % 0.00 in
05:24 54.6 °F 51.4 °F 30.14 in Calm     89 % 0.00 in
05:29 54.5 °F 51.3 °F 30.14 in Calm     89 % 0.00 in
05:34 54.5 °F 51.3 °F 30.14 in Calm     89 % 0.00 in
05:39 54.4 °F 51.2 °F 30.14 in SW 0.4 mph 1.2 mph 89 % 0.00 in
05:44 54.4 °F 51.2 °F 30.14 in SW 0.7 mph 1.2 mph 89 % 0.00 in
05:50 54.4 °F 51.5 °F 30.15 in Calm     90 % 0.00 in
05:55 54.3 °F 51.4 °F 30.15 in Calm     90 % 0.00 in
06:00 54.3 °F 51.4 °F 30.15 in Calm     90 % 0.00 in
06:05 54.4 °F 51.8 °F 30.15 in Calm     91 % 0.00 in
06:15 54.6 °F 52.3 °F 30.16 in Calm     92 % 0.00 in
06:20 54.8 °F 52.5 °F 30.16 in Calm     92 % 0.00 in
06:25 55.0 °F 53.0 °F 30.16 in Calm     93 % 0.00 in
06:30 55.3 °F 53.3 °F 30.16 in Calm     93 % 0.00 in
06:35 55.6 °F 53.9 °F 30.16 in Calm     94 % 0.00 in
06:41 56.0 °F 54.3 °F 30.16 in Calm     94 % 0.00 in
06:46 56.5 °F 54.8 °F 30.17 in SW 0.3 mph 1.2 mph 94 % 0.00 in
06:51 57.1 °F 55.7 °F 30.17 in Calm     95 % 0.00 in
06:56 57.8 °F 56.1 °F 30.17 in Calm     94 % 0.00 in
07:01 58.9 °F 57.5 °F 30.17 in Calm     95 % 0.00 in
07:06 60.0 °F 58.3 °F 30.17 in Calm     94 % 0.00 in
07:11 60.6 °F 58.3 °F 30.17 in Calm     92 % 0.00 in
07:16 61.2 °F 58.6 °F 30.17 in SW 1.7 mph 3.5 mph 91 % 0.00 in
07:21 61.8 °F 58.2 °F 30.17 in SW 1.4 mph 2.3 mph 88 % 0.00 in
07:26 62.6 °F 58.4 °F 30.17 in SW 0.6 mph 1.2 mph 86 % 0.00 in
07:37 63.8 °F 57.9 °F 30.17 in SW 0.5 mph 2.3 mph 81 % 0.00 in
07:42 64.3 °F 57.6 °F 30.18 in WSW 3.7 mph 5.8 mph 79 % 0.00 in
07:47 64.6 °F 57.2 °F 30.17 in WSW 3.4 mph 5.0 mph 77 % 0.00 in
07:52 64.8 °F 57.1 °F 30.17 in SW 1.3 mph 2.3 mph 76 % 0.00 in
07:57 64.9 °F 56.4 °F 30.17 in SW 1.5 mph 4.6 mph 74 % 0.00 in
08:02 65.1 °F 56.6 °F 30.17 in SW 2.7 mph 4.6 mph 74 % 0.00 in
08:07 65.2 °F 56.7 °F 30.17 in WSW 0.5 mph 1.2 mph 74 % 0.00 in
08:12 65.4 °F 56.9 °F 30.17 in WSW 1.3 mph 3.5 mph 74 % 0.00 in
08:17 65.5 °F 56.2 °F 30.17 in SSW 1.9 mph 2.3 mph 72 % 0.00 in
08:23 65.7 °F 55.2 °F 30.17 in SW 3.7 mph 6.9 mph 69 % 0.00 in
08:28 65.9 °F 55.0 °F 30.18 in SSW 3.7 mph 6.9 mph 68 % 0.00 in
08:33 66.2 °F 54.5 °F 30.18 in SW 2.2 mph 3.5 mph 66 % 0.00 in
08:38 66.6 °F 54.9 °F 30.17 in SW 4.7 mph 6.9 mph 66 % 0.00 in
08:43 67.0 °F 54.8 °F 30.18 in West 0.8 mph 2.3 mph 65 % 0.00 in
08:48 67.4 °F 55.2 °F 30.18 in WSW 2.7 mph 3.5 mph 65 % 0.00 in
08:53 67.7 °F 54.6 °F 30.18 in WNW 2.1 mph 5.0 mph 63 % 0.00 in
08:58 68.1 °F 55.0 °F 30.18 in West 1.3 mph 3.5 mph 63 % 0.00 in
09:03 68.5 °F 55.0 °F 30.18 in SW 1.8 mph 5.8 mph 62 % 0.00 in
09:08 68.8 °F 55.7 °F 30.19 in WSW 3.8 mph 4.0 mph 63 % 0.00 in
09:14 69.2 °F 55.2 °F 30.18 in SW 2.7 mph 4.6 mph 61 % 0.00 in
09:19 69.4 °F 54.9 °F 30.19 in Calm   3.5 mph 60 % 0.00 in
09:24 69.7 °F 55.2 °F 30.19 in West 1.6 mph 4.0 mph 60 % 0.00 in
09:29 70.0 °F 55.0 °F 30.19 in SW 3.5 mph 5.8 mph 59 % 0.00 in
09:34 70.3 °F 54.8 °F 30.19 in NW 0.7 mph 3.5 mph 58 % 0.00 in
09:39 70.5 °F 55.0 °F 30.19 in WSW 0.8 mph 3.5 mph 58 % 0.00 in
09:44 70.9 °F 55.4 °F 30.20 in NW 0.9 mph 3.5 mph 58 % 0.00 in
09:49 71.6 °F 56.5 °F 30.19 in WNW 3.2 mph 5.0 mph 59 % 0.00 in
09:54 72.4 °F 57.7 °F 30.19 in WNW 0.8 mph 4.0 mph 60 % 0.00 in
10:00 73.4 °F 58.2 °F 30.20 in WNW 1.8 mph 3.5 mph 59 % 0.00 in
10:05 74.7 °F 59.9 °F 30.20 in NW 1.6 mph 2.3 mph 60 % 0.00 in
10:10 75.9 °F 58.6 °F 30.20 in North 0.9 mph 3.5 mph 55 % 0.00 in
10:15 76.8 °F 59.9 °F 30.20 in WSW 1.4 mph 4.0 mph 56 % 0.00 in
10:20 77.6 °F 59.1 °F 30.20 in North 1.8 mph 3.5 mph 53 % 0.00 in
10:25 78.5 °F 58.3 °F 30.20 in WNW 1.2 mph 4.6 mph 50 % 0.00 in
10:30 79.2 °F 60.1 °F 30.20 in WSW 1.4 mph 2.3 mph 52 % 0.00 in
10:35 80.0 °F 61.3 °F 30.21 in WSW 0.1 mph 2.0 mph 53 % 0.00 in
10:40 80.5 °F 59.0 °F 30.20 in North 2.0 mph 4.6 mph 48 % 0.00 in
10:45 80.8 °F 57.5 °F 30.21 in Calm   3.5 mph 45 % 0.00 in
10:51 81.2 °F 59.6 °F 30.21 in WNW 0.5 mph 3.5 mph 48 % 0.00 in
10:56 81.5 °F 58.7 °F 30.21 in NW 1.2 mph 3.5 mph 46 % 0.00 in
11:01 81.6 °F 58.2 °F 30.21 in NNE 0.9 mph 3.5 mph 45 % 0.00 in
11:06 81.9 °F 57.8 °F 30.21 in NNE 1.0 mph 3.0 mph 44 % 0.00 in
11:11 82.3 °F 60.6 °F 30.21 in NNE 4.1 mph 5.0 mph 48 % 0.00 in
11:16 82.5 °F 60.8 °F 30.21 in North 2.1 mph 3.5 mph 48 % 0.00 in
11:21 82.8 °F 59.3 °F 30.21 in NNE 1.5 mph 2.3 mph 45 % 0.00 in
11:26 82.7 °F 58.6 °F 30.21 in NE 0.3 mph 3.5 mph 44 % 0.00 in
11:31 82.9 °F 56.1 °F 30.22 in ENE 2.8 mph 4.6 mph 40 % 0.00 in
11:36 83.0 °F 58.8 °F 30.22 in NE 3.6 mph 5.8 mph 44 % 0.00 in
11:42 83.4 °F 57.9 °F 30.22 in North 2.3 mph 4.6 mph 42 % 0.00 in
11:47 83.5 °F 58.0 °F 30.22 in NNE 3.0 mph 4.6 mph 42 % 0.00 in
11:52 83.6 °F 57.4 °F 30.22 in NNE 1.3 mph 3.5 mph 41 % 0.00 in
11:57 83.7 °F 56.8 °F 30.22 in NNE 0.5 mph 2.3 mph 40 % 0.00 in
12:02 83.7 °F 60.1 °F 30.22 in NE 0.8 mph 3.5 mph 45 % 0.00 in
12:07 83.6 °F 58.1 °F 30.22 in NE 3.3 mph 4.6 mph 42 % 0.00 in
12:12 83.9 °F 58.3 °F 30.22 in NNE 2.5 mph 3.5 mph 42 % 0.00 in
12:17 84.1 °F 56.5 °F 30.22 in NNE 1.0 mph 2.3 mph 39 % 0.00 in
12:22 84.2 °F 55.8 °F 30.22 in ENE 1.2 mph 3.5 mph 38 % 0.00 in
12:27 84.3 °F 57.3 °F 30.22 in East 0.6 mph 2.0 mph 40 % 0.00 in
12:33 84.4 °F 58.8 °F 30.22 in NNE 0.5 mph 2.3 mph 42 % 0.00 in
12:38 84.7 °F 56.3 °F 30.22 in NE 2.0 mph 3.5 mph 38 % 0.00 in
12:43 84.4 °F 56.0 °F 30.22 in ENE 1.0 mph 3.5 mph 38 % 0.00 in
12:48 84.1 °F 56.5 °F 30.22 in ENE 1.5 mph 3.5 mph 39 % 0.00 in
12:53 83.5 °F 57.3 °F 30.21 in NE 2.1 mph 3.5 mph 41 % 0.00 in
12:58 83.3 °F 58.5 °F 30.21 in NE 0.3 mph 2.3 mph 43 % 0.00 in
13:03 83.6 °F 56.0 °F 30.21 in ENE 1.1 mph 2.3 mph 39 % 0.00 in
13:08 83.7 °F 58.2 °F 30.21 in ENE 0.9 mph 2.3 mph 42 % 0.00 in
13:13 83.7 °F 56.1 °F 30.21 in NE 2.6 mph 5.0 mph 39 % 0.00 in
13:18 83.4 °F 55.8 °F 30.21 in NE 1.6 mph 4.6 mph 39 % 0.00 in
13:24 83.7 °F 56.8 °F 30.21 in NE 0.7 mph 3.5 mph 40 % 0.00 in
13:29 83.6 °F 58.1 °F 30.21 in ENE 2.4 mph 4.6 mph 42 % 0.00 in
13:39 82.9 °F 56.1 °F 30.21 in NE 1.6 mph 3.5 mph 40 % 0.00 in
13:49 82.9 °F 56.8 °F 30.21 in NE 2.0 mph 3.5 mph 41 % 0.00 in
13:54 83.0 °F 56.9 °F 30.21 in NE 0.2 mph 1.2 mph 41 % 0.00 in
13:59 83.2 °F 57.1 °F 30.21 in NE 0.9 mph 2.3 mph 41 % 0.00 in
14:04 83.5 °F 56.6 °F 30.21 in NE 0.1 mph 3.5 mph 40 % 0.00 in
14:09 83.8 °F 57.6 °F 30.21 in NE 1.8 mph 4.0 mph 41 % 0.00 in
14:15 84.1 °F 58.5 °F 30.20 in ENE 1.2 mph 2.0 mph 42 % 0.00 in
14:20 84.7 °F 59.1 °F 30.20 in Calm   1.2 mph 42 % 0.00 in
14:25 85.2 °F 58.8 °F 30.20 in NE 0.4 mph 2.3 mph 41 % 0.00 in
14:30 85.7 °F 56.4 °F 30.19 in ESE 1.0 mph 2.3 mph 37 % 0.00 in
14:35 86.0 °F 55.9 °F 30.19 in SE 0.8 mph 2.3 mph 36 % 0.00 in
14:40 86.4 °F 55.5 °F 30.19 in SE 1.1 mph 2.3 mph 35 % 0.00 in
14:45 87.0 °F 56.8 °F 30.19 in SE 1.0 mph 3.5 mph 36 % 0.00 in
14:50 87.3 °F 57.1 °F 30.19 in SE 0.9 mph 2.3 mph 36 % 0.00 in
14:55 87.8 °F 58.3 °F 30.19 in SE 0.9 mph 2.3 mph 37 % 0.00 in
15:00 88.0 °F 55.3 °F 30.19 in SE 1.2 mph 2.3 mph 33 % 0.00 in
15:06 88.2 °F 55.5 °F 30.19 in SE 1.4 mph 2.3 mph 33 % 0.00 in
15:11 88.2 °F 52.9 °F 30.19 in ESE 1.1 mph 2.3 mph 30 % 0.00 in
15:16 88.2 °F 57.1 °F 30.19 in SE 0.9 mph 2.3 mph 35 % 0.00 in
15:21 88.3 °F 53.8 °F 30.19 in SE 1.6 mph 3.5 mph 31 % 0.00 in
15:26 88.3 °F 53.8 °F 30.19 in ESE 0.6 mph 2.3 mph 31 % 0.00 in
15:31 88.5 °F 53.1 °F 30.19 in East 2.1 mph 3.5 mph 30 % 0.00 in
15:36 88.6 °F 53.2 °F 30.19 in East 1.4 mph 2.3 mph 30 % 0.00 in
15:41 88.6 °F 55.0 °F 30.19 in SE 0.8 mph 1.2 mph 32 % 0.00 in
15:46 88.5 °F 52.2 °F 30.19 in ENE 1.1 mph 2.3 mph 29 % 0.00 in
15:51 88.5 °F 51.2 °F 30.19 in ENE 0.1 mph 2.3 mph 28 % 0.00 in
15:57 88.5 °F 50.3 °F 30.19 in ENE 1.3 mph 3.5 mph 27 % 0.00 in
16:02 88.5 °F 50.3 °F 30.19 in NE 2.3 mph 3.5 mph 27 % 0.00 in
16:07 88.2 °F 50.0 °F 30.19 in NE 0.4 mph 4.6 mph 27 % 0.00 in
16:12 88.2 °F 51.0 °F 30.19 in NE 0.1 mph 1.0 mph 28 % 0.00 in
16:17 88.1 °F 50.9 °F 30.19 in NE 1.0 mph 2.3 mph 28 % 0.00 in
16:22 88.2 °F 51.0 °F 30.19 in ENE 3.3 mph 4.6 mph 28 % 0.00 in
16:27 87.8 °F 50.6 °F 30.19 in ENE 0.7 mph 2.3 mph 28 % 0.00 in
16:32 87.5 °F 48.4 °F 30.19 in ENE 1.4 mph 3.5 mph 26 % 0.00 in
16:37 87.5 °F 50.4 °F 30.19 in NE 0.9 mph 3.5 mph 28 % 0.00 in
16:42 87.5 °F 50.4 °F 30.19 in NE 2.3 mph 3.5 mph 28 % 0.00 in
16:48 87.4 °F 50.3 °F 30.19 in ENE 0.9 mph 2.3 mph 28 % 0.00 in
16:53 87.1 °F 50.0 °F 30.19 in NE 3.1 mph 6.9 mph 28 % 0.00 in
16:58 86.8 °F 51.6 °F 30.19 in NE 1.3 mph 2.3 mph 30 % 0.00 in
17:03 86.3 °F 57.0 °F 30.19 in SE 1.0 mph 3.0 mph 37 % 0.00 in
17:08 86.0 °F 58.2 °F 30.19 in SE 3.0 mph 6.9 mph 39 % 0.00 in
17:18 84.6 °F 59.6 °F 30.19 in ESE 3.4 mph 4.6 mph 43 % 0.00 in
17:23 84.0 °F 57.1 °F 30.19 in SE 3.8 mph 5.8 mph 40 % 0.00 in
17:28 83.6 °F 58.1 °F 30.19 in SSW 3.3 mph 6.9 mph 42 % 0.00 in
17:33 83.2 °F 57.7 °F 30.19 in SSE 0.9 mph 4.6 mph 42 % 0.00 in
17:39 83.0 °F 58.2 °F 30.19 in SSE 0.5 mph 4.6 mph 43 % 0.00 in
17:44 82.7 °F 57.9 °F 30.19 in SE 2.5 mph 8.1 mph 43 % 0.00 in
17:49 82.3 °F 56.9 °F 30.19 in SSE 4.7 mph 9.2 mph 42 % 0.00 in
17:59 81.4 °F 57.4 °F 30.19 in South 2.5 mph 6.0 mph 44 % 0.00 in
18:04 80.8 °F 56.9 °F 30.19 in South 2.0 mph 6.9 mph 44 % 0.00 in
18:09 80.2 °F 55.7 °F 30.19 in SE 6.1 mph 11.5 mph 43 % 0.00 in
18:14 79.6 °F 55.8 °F 30.19 in SE 5.5 mph 11.5 mph 44 % 0.00 in
18:24 79.0 °F 56.5 °F 30.20 in SSE 0.9 mph 6.0 mph 46 % 0.00 in
18:30 78.9 °F 56.4 °F 30.19 in SE 4.0 mph 5.8 mph 46 % 0.00 in
18:35 78.7 °F 55.6 °F 30.20 in SE 7.3 mph 8.1 mph 45 % 0.00 in
18:40 78.4 °F 55.3 °F 30.19 in South 3.2 mph 9.2 mph 45 % 0.00 in
18:45 78.2 °F 55.1 °F 30.20 in SSE 2.1 mph 8.1 mph 45 % 0.00 in
18:50 77.9 °F 55.5 °F 30.19 in SSE 2.2 mph 4.6 mph 46 % 0.00 in
18:55 77.6 °F 55.2 °F 30.20 in SSE 5.0 mph 9.2 mph 46 % 0.00 in
19:00 77.4 °F 55.0 °F 30.20 in SE 3.5 mph 9.2 mph 46 % 0.00 in
19:05 77.2 °F 54.8 °F 30.20 in SSE 2.9 mph 11.5 mph 46 % 0.00 in
19:10 77.0 °F 54.6 °F 30.21 in SSW 3.9 mph 9.2 mph 46 % 0.00 in
19:15 76.8 °F 54.5 °F 30.21 in SSE 3.6 mph 6.0 mph 46 % 0.00 in
19:21 76.6 °F 54.3 °F 30.21 in SE 6.4 mph 11.5 mph 46 % 0.00 in
19:26 76.3 °F 54.0 °F 30.21 in SE 2.9 mph 6.9 mph 46 % 0.00 in
19:31 76.0 °F 54.3 °F 30.21 in SSW 2.5 mph 5.8 mph 47 % 0.00 in
19:36 75.7 °F 54.0 °F 30.21 in SSW 3.1 mph 4.6 mph 47 % 0.00 in
19:41 75.4 °F 54.3 °F 30.21 in South 2.2 mph 4.6 mph 48 % 0.00 in
19:46 75.0 °F 54.0 °F 30.21 in SSE 2.8 mph 9.2 mph 48 % 0.00 in
19:51 74.7 °F 54.3 °F 30.21 in SSE 0.7 mph 4.6 mph 49 % 0.00 in
19:56 74.4 °F 54.5 °F 30.21 in South 2.8 mph 4.0 mph 50 % 0.00 in
20:01 74.2 °F 53.8 °F 30.22 in SE 2.9 mph 4.0 mph 49 % 0.00 in
20:06 73.8 °F 53.4 °F 30.22 in SSE 2.5 mph 8.1 mph 49 % 0.00 in
20:12 73.5 °F 53.2 °F 30.22 in SE 0.5 mph 5.0 mph 49 % 0.00 in
20:17 73.3 °F 53.5 °F 30.22 in SSE 1.0 mph 3.5 mph 50 % 0.00 in
20:22 73.1 °F 53.9 °F 30.22 in SE 1.9 mph 8.0 mph 51 % 0.00 in
20:27 72.8 °F 53.6 °F 30.22 in SSE 1.8 mph 5.0 mph 51 % 0.00 in
20:32 72.6 °F 54.5 °F 30.22 in Calm   1.2 mph 53 % 0.00 in
20:37 72.4 °F 53.8 °F 30.23 in SSW 0.1 mph 1.2 mph 52 % 0.00 in
20:42 72.2 °F 54.1 °F 30.23 in SSE 0.5 mph 2.0 mph 53 % 0.00 in
20:47 71.9 °F 53.8 °F 30.23 in SE 0.1 mph 1.2 mph 53 % 0.00 in
20:52 71.6 °F 53.6 °F 30.23 in SSE 2.3 mph 5.8 mph 53 % 0.00 in
20:57 71.2 °F 53.7 °F 30.23 in SE 0.4 mph 4.6 mph 54 % 0.00 in
21:03 71.1 °F 54.6 °F 30.23 in Calm     56 % 0.00 in
21:08 70.9 °F 53.9 °F 30.23 in Calm   1.2 mph 55 % 0.00 in
21:13 70.6 °F 53.6 °F 30.24 in Calm     55 % 0.00 in
21:18 70.4 °F 53.5 °F 30.24 in SSW 0.8 mph 2.3 mph 55 % 0.00 in
21:23 70.1 °F 53.7 °F 30.24 in Calm     56 % 0.00 in
21:28 69.9 °F 53.5 °F 30.25 in South 0.1 mph 1.2 mph 56 % 0.00 in
21:38 69.5 °F 53.6 °F 30.25 in Calm     57 % 0.00 in
21:43 69.4 °F 54.0 °F 30.26 in Calm     58 % 0.00 in
21:49 69.2 °F 54.3 °F 30.26 in Calm     59 % 0.00 in
21:54 69.0 °F 54.1 °F 30.26 in SE 0.1 mph 1.0 mph 59 % 0.00 in
21:59 68.8 °F 53.9 °F 30.26 in Calm   1.2 mph 59 % 0.00 in
22:04 68.5 °F 54.1 °F 30.26 in Calm     60 % 0.00 in
22:09 68.3 °F 55.2 °F 30.26 in Calm     63 % 0.00 in
22:14 68.1 °F 54.6 °F 30.26 in South 0.1 mph 1.2 mph 62 % 0.00 in
22:19 67.9 °F 55.7 °F 30.26 in Calm     65 % 0.00 in
22:24 67.7 °F 55.9 °F 30.27 in Calm     66 % 0.00 in
22:29 67.6 °F 55.8 °F 30.27 in Calm     66 % 0.00 in
22:34 67.4 °F 55.2 °F 30.27 in Calm     65 % 0.00 in
22:39 67.2 °F 55.0 °F 30.27 in Calm     65 % 0.00 in
22:44 67.1 °F 54.9 °F 30.27 in Calm     65 % 0.00 in
22:50 66.9 °F 55.2 °F 30.27 in Calm     66 % 0.00 in
22:55 66.7 °F 55.0 °F 30.27 in Calm     66 % 0.00 in
23:00 66.6 °F 55.3 °F 30.27 in Calm     67 % 0.00 in
23:05 66.4 °F 55.1 °F 30.27 in Calm     67 % 0.00 in
23:10 66.2 °F 55.3 °F 30.27 in Calm     68 % 0.00 in
23:15 66.0 °F 55.5 °F 30.28 in Calm     69 % 0.00 in
23:20 65.8 °F 55.3 °F 30.28 in Calm     69 % 0.00 in
23:25 65.7 °F 55.2 °F 30.28 in Calm     69 % 0.00 in
23:30 65.4 °F 55.7 °F 30.28 in Calm     71 % 0.00 in
23:35 65.2 °F 55.6 °F 30.28 in Calm     71 % 0.00 in
23:41 64.9 °F 56.4 °F 30.28 in Calm     74 % 0.00 in
23:46 64.6 °F 56.1 °F 30.28 in Calm     74 % 0.00 in
23:51 64.3 °F 55.8 °F 30.28 in Calm     74 % 0.00 in
23:56 64.1 °F 55.6 °F 30.28 in Calm     74 % 0.00 in
Crab Meadow Weather
Compliments of Weather Underground - 3 mb

Script developed by  Jim McMurry - jmcmurry@mwt.net Adapted for the template by  Wim van der Kuil - Leuven-Template.eu

Astronomy: One year on Pluto is equal to 248 Earth years.